Regional Weather Roundup
Issued by NWS Albany, NY

Home | Current Version | Previous Version | Graphics & Text | Print | Product List | Glossary On
Versions: 1 2 3 4 5 6 7 8 9 10 11 12 13 14 15 16 17 18 19 20 21 22 23 24 25 26 27
000
ASUS41 KALY 011910
RWRALY

NEW YORK STATE HOURLY WEATHER ROUNDUP
NATIONAL WEATHER SERVICE ALBANY NY
300 PM EDT SUN MAY 01 2016

NOTE: "FAIR" INDICATES FEW OR NO CLOUDS BELOW 12,000 FEET WITH NO
SIGNIFICANT WEATHER AND/OR NO OBSTRUCTIONS TO VISIBILITY.

NYZ032-033-038>043-046>054-057>066-NYZ062>081-082-084-012000-
EAST


CITY           SKY/WX    TMP DP  RH WIND       PRES   REMARKS
ALBANY         LGT RAIN  45  41  86 S10G18    30.16F
GLENS FALLS    CLOUDY    46  42  86 SW6       30.14F
POUGHKEEPSIE   CLOUDY    48  43  82 SE6       30.14F HAZE
NEWBURGH       LGT RAIN  46  46 100 SE12      30.15S FOG
MONTGOMERY     LGT RAIN  46  44  93 NE5       30.12F FOG
WHITE PLAINS   LGT RAIN  46  42  86 SE9       30.14F FOG
ISLIP          LGT RAIN  48  44  86 SE9       30.16F FOG
NEW YORK CITY  LGT RAIN  49  42  77 SE9       30.15F
CENTRAL PARK   CLOUDY    48  42  80 VRB6      30.17S
$$

NYZ005>009-017-018-044>046-055-056-012000-
CENTRAL


CITY           SKY/WX    TMP DP  RH WIND       PRES   REMARKS
FULTON         CLOUDY    50  43  77 VRB7      29.99F
SYRACUSE       CLOUDY    48  42  80 SE13      30.00F
ROME           CLOUDY    47  46  97 SE10      30.06F
ELMIRA         CLOUDY    53  45  74 S10       29.97F
BINGHAMTON     CLOUDY    43  41  93 S10G20    30.01F
MONTICELLO     CLOUDY    41  41 100 SE8       30.11F
$$

NYZ026>034-041>043-087-012000-
NORTH


CITY           SKY/WX    TMP DP  RH WIND       PRES   REMARKS
WATERTOWN      CLOUDY    50  43  77 SE5       30.02F
FORT DRUM      NOT AVBL
MASSENA        LGT RAIN  46  42  86 NE10      30.11F
SARANAC LAKE   CLOUDY    45  40  82 S5        30.06F
PLATTSBURGH    LGT RAIN  44  42  93 SE10      30.14F
$$

NYZ001>004-010>016-019>021-085-012000-
WEST


CITY           SKY/WX    TMP DP  RH WIND       PRES   REMARKS
NIAGARA FALLS  CLOUDY    55  49  80 N5        29.92S
BUFFALO        DRIZZLE   54  51  90 N5        29.92S FOG
DUNKIRK        CLOUDY    51  50  96 W7        29.95R FOG
JAMESTOWN      CLOUDY    55  52  88 W10       29.93R
WELLSVILLE     CLOUDY    56  51  84 S10G20    29.94S
ROCHESTER      DRIZZLE   51  49  92 E7        29.93S FOG
PENN YAN       CLOUDY    53  47  79 SE9       29.94F
$$

             KEY
       WCI = WIND CHILL INDEX
       VSB = VISIBILITY
       HX  = HEAT INDEX
$$




USA.gov is the U.S. government's official web portal to all federal, state and local government web resources and services.